DW2513 Weather Reports


Display with metric or nautical units.
time (UTC)temp
F
wind
direction
speed
MPH
gust
MPH
rain 1hr
in
rain 24hr
in
rain mn
in
humidity
%
barometer
mb
20260508135306 53 160 3.0 12.0 0.00 0.00 0.00 24 1005.7
20260508134305 53 103 1.0 7.0 0.00 0.00 0.00 26 1005.9
20260508132306 52 128 3.0 6.0 0.00 0.00 0.00 27 1005.9
20260508131804 53 126 2.0 5.0 0.00 0.00 0.00 28 1005.9
20260508131305 52 316 0.0 2.0 0.00 0.00 0.00 30 1005.9
20260508130304 52 107 0.0 0.0 0.00 0.00 0.00 31 1005.8
20260508125804 52 153 0.0 3.0 0.00 0.00 0.00 31 1005.8
20260508124805 50 141 2.0 7.0 0.00 0.00 0.00 34 1006.1
20260508123805 48 221 1.0 5.0 0.00 0.00 0.00 40 1006.1
20260508122805 47 142 0.0 0.0 0.00 0.00 0.00 47 1006.1
20260508121804 46 208 0.0 3.0 0.00 0.00 0.00 51 1006.1
20260508120804 44 263 0.0 0.0 0.00 0.00 0.00 56 1006.1
20260508115306 41 267 0.0 0.0 0.00 0.00 0.00 64 1006.1
20260508114304 39 267 0.0 0.0 0.00 0.00 0.00 69 1006.1
20260508113805 39 267 0.0 0.0 0.00 0.00 0.00 70 1006.1
20260508112804 38 267 0.0 0.0 0.00 0.00 0.00 71 1005.8
20260508112307 37 267 0.0 0.0 0.00 0.00 0.00 71 1005.8
20260508111305 37 267 0.0 0.0 0.00 0.00 0.00 74 1005.8
20260508110804 37 267 0.0 0.0 0.00 0.00 0.00 74 1005.8
20260508105804 36 197 0.0 0.0 0.00 0.00 0.00 75 1005.8
20260508105306 36 197 0.0 0.0 0.00 0.00 0.00 76 1005.8
20260508103304 34 156 0.0 0.0 0.00 0.00 0.00 79 1005.4
20260508101804 33 156 0.0 0.0 0.00 0.00 0.00 78 1005.4
20260508101305 33 156 0.0 0.0 0.00 0.00 0.00 78 1005.4
20260508100804 33 156 0.0 0.0 0.00 0.00 0.00 78 1005.4
20260508100304 32 156 0.0 0.0 0.00 0.00 0.00 78 1005.1
20260508095306 32 156 0.0 0.0 0.00 0.00 0.00 78 1005.1
20260508094304 32 156 0.0 0.0 0.00 0.00 0.00 78 1005.1
20260508093805 32 156 0.0 0.0 0.00 0.00 0.00 77 1005.1
20260508092804 32 156 0.0 0.0 0.00 0.00 0.00 77 1005.1
20260508092312 32 156 0.0 0.0 0.00 0.00 0.00 77 1005.1
20260508090304 32 156 0.0 0.0 0.00 0.00 0.00 76 1005.1
20260508085805 32 156 0.0 0.0 0.00 0.00 0.00 76 1005.0
20260508084804 33 156 0.0 0.0 0.00 0.00 0.00 75 1005.0
20260508084305 33 156 0.0 0.0 0.00 0.00 0.00 75 1005.0
20260508080804 34 156 0.0 0.0 0.00 0.00 0.00 74 1004.7
20260508075804 34 156 0.0 0.0 0.00 0.00 0.00 74 1004.7
20260508074304 34 156 0.0 0.0 0.00 0.00 0.00 73 1004.7
20260508072805 34 156 0.0 0.0 0.00 0.00 0.00 72 1004.7
20260508072307 35 156 0.0 0.0 0.00 0.00 0.00 71 1004.7
20260508071304 35 156 0.0 0.0 0.00 0.00 0.00 71 1004.7
20260508070804 35 156 0.0 0.0 0.00 0.00 0.00 71 1004.7
20260508064804 35 156 0.0 0.0 0.00 0.00 0.00 70 1004.7
20260508063304 36 156 0.0 0.0 0.00 0.00 0.00 69 1004.5
20260508062804 36 156 0.0 0.0 0.00 0.00 0.00 68 1004.5
20260508061804 37 156 0.0 0.0 0.00 0.00 0.00 67 1004.5
20260508061304 37 156 0.0 0.0 0.00 0.00 0.00 67 1004.5
20260508060804 37 156 0.0 0.0 0.00 0.00 0.00 66 1004.5
20260508060304 37 156 0.0 0.0 0.00 0.00 0.00 66 1004.5
20260508055804 37 156 0.0 0.0 0.00 0.00 0.00 67 1004.5
20260508053804 38 156 0.0 0.0 0.00 0.00 0.00 67 1004.5
20260508053305 38 156 0.0 0.0 0.00 0.00 0.00 66 1004.5
20260508052804 38 156 0.0 0.0 0.00 0.00 0.00 66 1005.0
20260508052307 38 156 0.0 0.0 0.00 0.00 0.00 64 1005.0
20260508051304 38 156 0.0 0.0 0.00 0.00 0.00 64 1005.0
20260508050304 39 156 0.0 0.0 0.00 0.00 0.00 64 1005.0
20260508045804 39 156 0.0 0.0 0.00 0.00 0.00 63 1005.0
20260508043304 39 156 0.0 0.0 0.00 0.00 0.00 63 1005.0
20260508042804 39 156 0.0 0.0 0.00 0.00 0.00 62 1005.0
20260508041804 40 156 0.0 0.0 0.00 0.00 0.00 60 1005.0
20260508040821 40 156 0.0 0.0 0.00 0.00 0.00 59 1005.0
20260508035306 41 156 0.0 0.0 0.00 0.00 0.00 58 1005.0
20260508033304 41 156 0.0 0.0 0.00 0.00 0.00 55 1004.8
20260508031804 42 156 0.0 0.0 0.00 0.00 0.00 52 1004.8
20260508030805 44 156 0.0 0.0 0.00 0.00 0.00 50 1004.9
20260508024804 44 156 0.0 0.0 0.00 0.01 0.00 46 1004.9
20260508023804 45 156 0.0 0.0 0.00 0.01 0.00 49 1004.9
20260508022805 44 156 0.0 0.0 0.00 0.02 0.00 44 1004.9
20260508015306 46 156 0.0 0.0 0.00 0.04 0.00 41 1004.2
20260508014306 47 156 0.0 0.0 0.00 0.05 0.00 41 1004.2
20260508013805 47 156 0.0 0.0 0.00 0.05 0.00 43 1004.2
20260508013305 47 156 0.0 0.0 0.00 0.05 0.00 38 1004.2
20260508012307 47 149 0.0 0.0 0.00 0.05 0.00 38 1004.1
20260508011805 47 149 0.0 0.0 0.00 0.05 0.00 38 1004.1
20260508010304 47 147 0.0 0.0 0.00 0.06 0.00 41 1003.8
20260508005306 47 147 0.0 0.0 0.00 0.06 0.00 44 1003.8
20260508004804 48 147 0.0 0.0 0.00 0.07 0.00 42 1003.1
20260508004304 48 147 0.0 0.0 0.00 0.07 0.00 46 1003.1
20260508001305 52 147 0.0 0.0 0.00 0.08 0.00 37 1003.1
20260508000805 52 147 0.0 0.0 0.00 0.08 0.00 31 1003.1
20260507234304 53 144 0.0 3.0 0.00 0.08 0.00 28 1002.7
20260507233804 53 156 1.0 7.0 0.00 0.08 0.00 28 1002.7
20260507232307 54 103 0.0 3.0 0.00 0.09 0.00 28 1002.7
20260507231804 54 55 0.0 0.0 0.00 0.09 0.00 28 1002.7
20260507225306 55 110 0.0 3.0 0.00 0.10 0.00 27 1002.7
20260507224804 55 163 0.0 0.0 0.00 0.11 0.00 27 1002.6
20260507224304 55 163 0.0 2.0 0.00 0.11 0.00 27 1002.6
20260507223304 55 163 0.0 0.0 0.00 0.11 0.00 27 1002.6
20260507222306 55 106 2.0 6.0 0.00 0.11 0.00 26 1002.6
20260507221804 56 82 1.0 6.0 0.00 0.11 0.00 27 1002.6
20260507221305 56 190 1.0 3.0 0.00 0.11 0.00 26 1002.5
20260507220805 55 231 0.0 3.0 0.00 0.11 0.00 27 1002.5
20260507220304 55 106 0.0 2.0 0.00 0.11 0.00 28 1002.5
20260507215306 55 70 0.0 1.0 0.00 0.11 0.00 28 1002.5
20260507214304 56 253 0.0 0.0 0.00 0.13 0.00 27 1002.5
20260507213304 56 37 1.0 5.0 0.00 0.18 0.00 26 1002.4
20260507212805 56 261 1.0 7.0 0.00 0.18 0.00 26 1002.4
20260507212307 56 133 1.0 6.0 0.00 0.18 0.00 25 1002.4
20260507211805 56 94 0.0 3.0 0.00 0.18 0.00 26 1002.4
20260507205804 57 189 1.0 7.0 0.00 0.19 0.00 25 1002.4
20260507204304 57 174 0.0 2.0 0.00 0.19 0.00 27 1002.4
20260507203304 57 165 0.0 3.0 0.00 0.19 0.00 26 1002.4
20260507202306 56 171 2.0 5.0 0.00 0.20 0.00 25 1002.4
20260507201304 57 157 3.0 7.0 0.00 0.21 0.00 25 1002.4
20260507195306 57 160 1.0 7.0 0.00 0.24 0.00 26 1002.4
20260507193804 58 98 0.0 5.0 0.00 0.28 0.00 26 1002.4
20260507192804 57 98 1.0 5.0 0.00 0.31 0.00 27 1003.1
20260507192306 57 178 1.0 9.0 0.00 0.34 0.00 26 1003.1
20260507191304 57 251 2.0 6.0 0.00 0.38 0.00 26 1003.1
20260507190805 58 246 2.0 10.0 0.00 0.39 0.00 26 1003.1
20260507190305 58 118 1.0 3.0 0.00 0.39 0.00 25 1003.1
20260507185306 58 142 2.0 6.0 0.00 0.40 0.00 27 1003.1
20260507184805 57 136 1.0 3.0 0.00 0.40 0.00 27 1003.1
20260507183805 57 115 0.0 2.0 0.00 0.42 0.00 26 1003.1
20260507183304 57 95 1.0 9.0 0.00 0.42 0.00 28 1003.1
20260507182804 57 84 1.0 5.0 0.00 0.43 0.00 27 1003.1
20260507182307 58 33 1.0 5.0 0.00 0.44 0.00 26 1003.1
20260507180805 58 211 3.0 6.0 0.00 0.46 0.00 26 1003.1
20260507180305 57 108 4.0 13.0 0.00 0.46 0.00 26 1003.1
20260507175307 57 160 2.0 7.0 0.00 0.47 0.00 26 1003.4
20260507174304 57 130 0.0 7.0 0.00 0.48 0.00 28 1003.4
20260507173304 57 202 3.0 12.0 0.00 0.50 0.00 28 1003.4
20260507172804 56 121 2.0 10.0 0.00 0.51 0.00 28 1003.4
20260507170804 57 15 1.0 5.0 0.00 0.53 0.00 28 1004.2
20260507165805 56 64 1.0 8.0 0.00 0.54 0.00 30 1004.2
20260507165306 56 154 1.0 5.0 0.00 0.55 0.00 30 1004.2
20260507164804 57 122 1.0 3.0 0.00 0.55 0.00 31 1004.2
20260507164304 56 95 2.0 10.0 0.00 0.56 0.00 29 1004.2
20260507162307 56 166 3.0 7.0 0.00 0.58 0.00 29 1004.2
20260507161804 55 201 6.0 17.0 0.00 0.58 0.00 28 1004.2
20260507160804 55 110 2.0 7.0 0.00 0.59 0.00 32 1004.6
20260507160304 54 32 0.0 2.0 0.00 0.59 0.00 30 1004.6
20260507154304 55 241 3.0 16.0 0.00 0.59 0.00 29 1004.8
20260507153804 56 135 1.0 3.0 0.00 0.59 0.00 34 1004.8
20260507151805 54 351 2.0 9.0 0.00 0.60 0.00 35 1004.7
20260507151305 54 137 1.0 6.0 0.00 0.60 0.00 35 1004.7
20260507150804 54 258 3.0 12.0 0.00 0.60 0.00 34 1004.7
20260507145805 54 127 1.0 7.0 0.00 0.60 0.00 35 1004.7
20260507144804 55 197 1.0 6.0 0.00 0.60 0.00 39 1004.7
20260507142306 53 115 2.0 7.0 0.00 0.60 0.00 43 1004.7